Kenai, AK

11:43 PM AKDT on September 17, 2019 (GMT -0800)
Kenai Municipal

Weather History for PAEN - August, 2019

Change the Weather History Date:

Saturday, August 24, 2019

  Actual Average Record
Temperature  
Mean Temperature 56 °F -  
Max Temperature 70 °F 60 °F 75 °F (2004)
Min Temperature 43 °F 44 °F 33 °F (1978)
Degree Days  
Heating Degree Days 8    
Growing Degree Days 6 (Base 50)    
Moisture  
Dew Point 42 °F    
Average Humidity 72    
Maximum Humidity 97    
Minimum Humidity 29    
Precipitation  
Precipitation 0.00 in - - ()
Sea Level Pressure  
Sea Level Pressure 29.68 in    
Wind  
Wind Speed 4 mph (NNE)    
Max Wind Speed 9 mph    
Max Gust Speed -    
Visibility 8 miles    
Events      
Averages and records for this station are not official NWS values.
T = Trace of Precipitation, MM = Missing Value Source: NWS Daily Summary

Daily Weather History Graph

Daily Weather History Graph

Search for Another Location

Airport or City:

Astronomy

Aug. 24, 2019 Rise Set
Actual Time 6:38 AM AKDT 9:34 PM AKDT
Civil Twilight 5:50 AM AKDT 10:22 PM AKDT
Nautical Twilight 4:42 AM AKDT 11:28 PM AKDT
Astronomical Twilight 2:40 AM AKDT 1:19 AM AKDT
Moon 12:01 AM AKDT (8/24) 5:53 PM AKDT (8/24)
Length of Visible Light 16h 32m
Length of Day
14h 55m
Last Quarter, 37% of the Moon is Illuminated
Aug 24
Last Quarter
Aug 30
New
Sep 5
First Quarter
Sep 13
Full
Sep 21
Last Quarter

Hourly Weather History & Observations

Time (AKDT) Temp. Windchill Dew Point Humidity Pressure Visibility Wind Dir Wind Speed Gust Speed Precip Events Conditions
12:05 AM 44.1 °F 41.5 °F 42.1 °F 93% 29.57 in 2.5 mi ENE 4.6 mph - N/A   Smoke
12:09 AM 43.0 °F 41.3 °F 42.1 °F 97% 29.57 in 0.8 mi NE 3.5 mph - N/A   Smoke
12:20 AM 46.0 °F - 44.1 °F 93% 29.57 in 0.2 mi Calm Calm - N/A   Smoke
12:41 AM 46.0 °F 43.9 °F 44.1 °F 93% 29.58 in 0.5 mi NNE 4.6 mph - N/A   Smoke
12:45 AM 46.0 °F 44.8 °F 44.1 °F 93% 29.58 in 0.2 mi NE 3.5 mph - N/A   Smoke
12:53 AM 45.0 °F 41.8 °F 44.1 °F 97% 29.60 in 0.5 mi NNE 5.8 mph - N/A   Smoke
1:03 AM 46.9 °F - 45.0 °F 93% 29.60 in 2.5 mi ENE 4.6 mph - N/A   Smoke
1:10 AM 46.9 °F - 45.0 °F 93% 29.60 in 7.0 mi East 5.8 mph - N/A   Smoke
1:53 AM 48.9 °F - 46.0 °F 90% 29.60 in 9.0 mi Calm Calm - N/A   Smoke
2:53 AM 46.9 °F - 43.0 °F 86% 29.62 in 8.0 mi NE 5.8 mph - N/A   Smoke
3:53 AM 48.9 °F - 44.1 °F 83% 29.62 in 10.0 mi ENE 4.6 mph - N/A   Smoke
4:53 AM 46.9 °F - 42.1 °F 83% 29.63 in 10.0 mi North 3.5 mph - N/A   Smoke
5:53 AM 45.0 °F - 42.1 °F 90% 29.64 in 10.0 mi Calm Calm - N/A   Smoke
6:53 AM 44.1 °F - 41.0 °F 89% 29.66 in 10.0 mi Calm Calm - N/A   Smoke
7:53 AM 46.0 °F - 43.0 °F 89% 29.67 in 10.0 mi Calm Calm - N/A   Smoke
8:53 AM 48.0 °F - 44.1 °F 86% 29.68 in 10.0 mi NE 3.5 mph - N/A   Smoke
9:53 AM 57.0 °F - 43.0 °F 59% 29.70 in 10.0 mi ENE 6.9 mph - N/A   Smoke
10:53 AM 60.1 °F - 42.1 °F 51% 29.71 in 10.0 mi NNE 8.1 mph - N/A   Smoke
12:53 PM 66.0 °F - 37.0 °F 34% 29.73 in 10.0 mi North - - N/A   Smoke
1:53 PM 68.0 °F - 36.0 °F 31% 29.74 in 10.0 mi Variable 5.8 mph - N/A   Smoke
2:53 PM 70.0 °F - 36.0 °F 29% 29.74 in 10.0 mi NNW 8.1 mph - N/A   Smoke
4:53 PM 66.9 °F - 37.0 °F 33% 29.75 in 10.0 mi West 6.9 mph - N/A   Smoke
5:53 PM 66.9 °F - 37.0 °F 33% 29.75 in 10.0 mi WSW 9.2 mph - N/A   Smoke
6:53 PM 66.0 °F - 37.9 °F 36% 29.77 in 10.0 mi WSW 8.1 mph - N/A   Smoke
7:53 PM 64.9 °F - 39.0 °F 39% 29.77 in 10.0 mi WNW 3.5 mph - N/A   Smoke
8:53 PM 61.0 °F - 42.1 °F 50% 29.78 in 10.0 mi WSW 4.6 mph - N/A   Smoke
9:53 PM 55.9 °F - 46.9 °F 72% 29.79 in 10.0 mi South 3.5 mph - N/A   Smoke
10:53 PM 55.9 °F - 52.0 °F 87% 29.81 in 10.0 mi SSW 6.9 mph - N/A   Smoke
11:53 PM 52.0 °F - 46.9 °F 83% 29.83 in 10.0 mi South 5.8 mph - N/A   Smoke